#timestamp,LO_Frequency,Hit,StdDev 
1543582815.2,286047017.0,N
1543582835.0,286047015.2,N
1543582835.9,286047015.2,N
1543582855.8,286047015.6,N
1543582875.6,286047013.1,N
1543582895.4,286047015.5,Y
1543582915.3,286047002.6,P
1543582935.1,286047000.1,N
1543582955.9,286047000.3,N
1543582975.7,286046998.3,N
1543582995.5,286046996.5,N
1543583015.4,286046995.3,N
1543583035.2,286046996.2,N
1543583055.0,286046996.1,N
1543583055.9,286046996.1,N
1543583075.8,286046993.3,N
1543583095.6,286046994.0,N
1543583115.4,286046991.7,N
1543583135.3,286046992.2,N
1543583155.1,286046992.4,N
1543583175.9,286046990.6,N
1543583195.7,286046988.6,N
1543583215.5,286046989.1,N
1543583235.4,286046989.7,N
1543583255.2,286046989.4,N
1543583275.0,286046988.6,N
1543583275.9,286046988.6,N
1543583295.8,286046988.7,N
1543583315.6,286046990.2,N
1543583335.5,286046995.9,N
1543583355.3,286047000.4,N
1543583375.1,286047000.4,N
1543583395.9,286047003.1,N
1543583415.7,286047002.9,N
1543583435.5,286047004.3,N
1543583455.4,286047002.2,N
1543583475.2,286047001.0,N
1543583495.1,286046998.5,N
1543583496.0,286046998.5,N
1543583515.8,286046999.1,N
1543583535.6,286046995.0,N
1543583555.5,286046993.7,N
1543583575.3,286046993.6,N
1543583595.1,286046992.4,N
1543583615.9,286046990.9,N
1543583635.7,286046990.8,N
1543583655.6,286046989.1,N
1543583675.4,286046989.1,N
1543583695.2,286046989.7,N
1543583715.1,286046989.3,N
1543583716.0,286046989.3,N
1543583735.8,286046989.4,N
1543583755.7,286046989.9,N
1543583775.5,286046988.2,N
1543583795.3,286046987.4,N
1543583815.2,286046990.6,N
1543583835.9,286046995.9,N
1543583855.7,286046999.8,N
1543583875.6,286047005.2,N
1543583895.4,286047009.4,N
1543583915.2,286047012.6,N
1543583935.1,286047016.9,N
1543583936.0,286047016.9,N
1543583955.8,286047016.4,N
1543583975.7,286047018.6,N
1543583995.5,286047020.4,N
1543584015.3,286047018.3,N
1543584035.2,286047016.7,N
1543584055.0,286047013.2,N
1543584055.9,286047013.2,N
1543584075.7,286047011.5,N
1543584095.6,286047009.5,N
1543584115.4,286047008.4,N
1543584135.3,286047005.2,N
1543584155.1,286047003.8,N
1543584156.0,286047003.8,N
1543584175.8,286047001.5,N
1543584195.7,286047000.6,N
1543584215.5,286046998.3,N
1543584235.3,286046998.9,N
1543584255.2,286046996.6,N
1543584275.0,286046998.5,N
1543584275.9,286046998.5,N
1543584295.8,286046998.4,N
1543584315.6,286047001.1,N
1543584335.4,286047002.6,N
1543584355.3,286047005.5,N
1543584375.1,286047005.2,N
1543584395.8,286047008.5,N
1543584415.7,286047008.0,N
1543584435.5,286047010.4,N
1543584455.4,286047010.9,N
1543584475.2,286047017.2,N
1543584495.0,286047017.5,N
1543584495.9,286047017.5,N
1543584515.8,286047019.8,N
1543584535.6,286047020.5,N
1543584555.4,286047021.1,N
1543584575.3,286047026.1,Y
1543584595.1,286047016.0,P
1543584615.9,286047012.6,N
1543584635.7,286047012.0,P
1543584655.5,286047008.2,N
1543584675.4,286047004.9,N
1543584695.2,286047003.9,N
1543584715.0,286047002.4,N
1543584715.9,286047002.4,N
1543584735.8,286046998.4,N
1543584755.6,286046996.8,N
1543584775.5,286046995.2,N
1543584795.3,286046993.8,N
1543584815.1,286046992.9,N
1543584835.9,286046992.0,N
1543584855.7,286046991.0,N
1543584875.5,286046991.5,N
1543584895.4,286046989.5,N
1543584915.2,286046987.0,N
1543584935.1,286046988.1,N
1543584936.0,286046988.1,N
1543584955.8,286046988.2,N
1543584975.6,286046987.1,N
1543584995.5,286046988.3,N
1543585015.3,286046986.0,N
1543585035.1,286046986.0,N
1543585055.9,286046984.2,N
1543585075.7,286046984.7,N
1543585095.6,286046984.4,N
1543585115.4,286046986.3,N
1543585135.2,286046984.0,N
1543585155.1,286046986.3,N
1543585156.0,286046986.3,N
1543585175.8,286046992.5,N
1543585195.6,286046993.6,N
1543585215.5,286046995.3,N
1543585235.3,286046996.4,N
1543585255.2,286046994.3,N
1543585275.9,286046992.7,N
1543585295.7,286046991.4,N
1543585315.6,286046991.3,N
1543585335.4,286046987.3,Y
1543585355.3,286046998.8,P
1543585375.1,286046997.2,N
1543585376.0,286046997.2,N
1543585395.8,286046997.8,N
1543585415.7,286046995.6,N
1543585435.5,286046995.9,N
1543585455.3,286046993.9,N
1543585475.2,286046992.2,N
1543585495.0,286046994.7,N
1543585495.9,286046994.7,N
1543585515.8,286046995.9,N
1543585535.6,286046994.9,N
1543585555.4,286046997.4,N
1543585575.3,286046999.5,N
1543585595.1,286046998.5,N
1543585615.8,286046998.3,N
1543585635.7,286046999.3,N
1543585655.5,286046996.7,N
1543585675.4,286046997.2,N
1543585695.2,286046995.5,N
1543585715.0,286046995.5,N
1543585715.9,286046995.5,N
1543585735.8,286046996.3,N
1543585755.6,286046993.6,N
1543585775.4,286046994.5,N
1543585795.3,286046991.9,Y
1543585815.1,286046995.4,P
1543585835.9,286046995.8,P
1543585855.7,286046995.4,P
1543585875.5,286046995.5,Y
1543585895.4,286047000.7,P
1543585915.2,286046998.6,N
1543585935.1,286046999.3,N
1543585936.0,286046999.3,N
1543585955.8,286047000.7,N
1543585975.6,286046998.2,N
1543585995.5,286046999.4,N
1543586015.3,286046998.1,N
1543586035.1,286047000.5,N
1543586055.9,286047001.4,N
1543586075.7,286047003.8,N
1543586095.6,286047001.4,N
1543586115.4,286047002.6,N
1543586135.2,286047000.1,N
1543586155.1,286047001.2,N
1543586156.0,286047001.2,N
1543586175.8,286046998.4,N
1543586195.6,286046998.9,N
1543586215.5,286046997.1,N
1543586235.3,286046997.4,N
1543586255.2,286046997.7,N
1543586275.9,286046998.7,N
1543586295.7,286046999.3,N
1543586315.6,286046997.7,N
1543586335.4,286046995.0,N
1543586355.2,286046995.1,N
1543586375.1,286046996.0,N
1543586376.0,286046996.0,N
1543586395.8,286046995.6,N
